Regional Weather Roundup
Issued by NWS

Home | Current Version | Previous Version | Graphics & Text | Print | Product List | Glossary Off
Versions: 1 2 3 4 5 6 7 8 9 10 11 12 13 14 15 16 17 18 19 20 21 22 23 24 25 26 27 28 29 30 31 32 33 34 35 36 37 38 39 40 41 42 43 44 45 46 47 48 49 50

539
ASUS43 KTOP 262159
RWRKS

WEATHER ROUNDUP FOR KANSAS
NATIONAL WEATHER SERVICE GOODLAND KS
500 PM CDT TUE JUL 26 2016

NOTE:  "FAIR" INDICATES FEW OR NO CLOUDS BELOW 12,000 FEET WITH NO
SIGNIFICANT WEATHER AND/OR OBSTRUCTIONS TO VISIBILITY.

KSZ001>006-013>018-027>032-041>047-262300-
NORTHWEST KANSAS

CITY           SKY/WX    TMP DP  RH WIND       PRES   REMARKS
GOODLAND       SUNNY     91  64  40 SE15G24   30.02F
HAYS           SUNNY     90  64  43 S9        29.99F
HILL CITY      SUNNY     89  67  47 SE16G22   29.99F
RUSSELL        SUNNY     90  64  42 SE12G17   29.98F
$$

KSZ061>065-074>080-084>089-262300-
SOUTHWEST KANSAS

CITY           SKY/WX    TMP DP  RH WIND       PRES   REMARKS
DODGE CITY     SUNNY     89  66  46 E9        30.01F
ELKHART          N/A     95  67  39 SE12        N/A  HX  99
GARDEN CITY    MOSUNNY   87  69  54 SE12      30.02F
GREAT BEND     SUNNY     88  64  45 SE10      29.98F
LIBERAL        MOSUNNY   90  68  48 E14       30.02S
$$

KSZ066>073-081>083-090>101-262300-
SOUTHEAST KANSAS

CITY           SKY/WX    TMP DP  RH WIND       PRES   REMARKS
CHANUTE        CLOUDY    88  73  61 NE7       29.96S HX  95
COFFEYVILLE    CLOUDY    80  74  81 S14G20    29.94S
HUTCHINSON     MOSUNNY   91  70  49 E9        29.97F HX  96
NEWTON         PTSUNNY   84  72  67 E8        29.99F
PARSONS        CLOUDY    88  75  65 VRB5      29.96S HX  97
WICHITA INTL   PTSUNNY   89  70  53 E10       29.95F
WICHITA JABRA  MOSUNNY   88  72  58 E8        29.96F
WICHITA MCCONL SUNNY     89  71  53 VRB3      29.96F HX  95
WINFIELD       MOSUNNY   90  72  55 NE10      29.95F HX  97
$$

KSZ007>012-019>026-033>040-048>060-102>105-262300-
NORTHEAST KANSAS

CITY           SKY/WX    TMP DP  RH WIND       PRES   REMARKS
CONCORDIA      SUNNY     86  64  47 SE7       30.00F
EMPORIA        MOSUNNY   86  67  52 NE7       29.98F
LAWRENCE       SUNNY     88  68  51 E6        29.97F
MANHATTAN      SUNNY     88  68  51 E8        29.97F
OLATHE IND     SUNNY     89  66  46 E7        29.98F
OLATHE EXE     SUNNY     86  66  51 E6        29.98F
SALINA         SUNNY     91  67  44 SE8       29.97F
TOPEKA BILLARD SUNNY     89  66  46 E6        29.97F
TOPEKA FORBES  SUNNY     89  67  47 E8        29.98F
$$




USA.gov is the U.S. government's official web portal to all federal, state and local government web resources and services.